Back to catalog

CHINASAT 2D

AliveCommunicationsGEO
NORAD 43920·PAYLOAD·🇨🇳 China

Launched Jan 10, 2019 from Xichang Satellite Launch Center

Loading…

TLE

FreshSource: Space-Track

Epoch: Sep 14, 2026, 14:25 UTC

1 43920U 19001A   26257.60092779 -.00000345  00000-0  00000-0 0  9994
2 43920   0.0555 318.6882 0001313 353.3230  27.9348  1.00271999 54974

Track CHINASAT 2D in real time with AllMySat

Download on the App Store